Regional Weather Roundup
Issued by NWS Nashville, TN

Home | Current Version | Previous Version | Text Only | Print | Product List | Glossary On
Versions: 1 2 3 4 5 6 7 8 9 10 11 12 13 14 15 16 17 18 19 20 21 22 23 24 25 26 27 28 29 30 31 32 33 34 35 36 37 38 39 40 41 42 43 44 45 46 47 48 49 50
000
ASUS44 KOHX 171410
RWROHX
MIDDLE TENNESSEE HOURLY WEATHER ROUNDUP
NATIONAL WEATHER SERVICE NASHVILLE TN
900 AM CDT TUE OCT 17 2017

NOTE: "FAIR" INDICATES FEW OR NO CLOUDS BELOW 12,000 FEET WITH
NO SIGNIFICANT WEATHER AND/OR OBSTRUCTIONS TO VISIBILITY.

* THESE REPORTS ARE NOT UNDER NWS QUALITY CONTROL AND MAY NOT
  REPORT WEATHER SUCH AS PRECIPITATION AND FOG.


TNZ005>011-023>034-057-059-062>066-078-080-171500
...NORTHERN MIDDLE TENNESSEE...

CITY           SKY/WX    TMP DP  RH WIND       PRES   REMARKS
CLARKSVILLE    SUNNY     49  44  83 CALM      30.39R
CROSSVILLE     SUNNY     49  40  71 NE6       30.37R
GALLATIN       SUNNY     52  45  76 CALM      30.41S
DICKSON          N/A     50  43  77 E5        30.38R
LEBANON        SUNNY     48  44  86 CALM      30.37R
NASHVILLE      SUNNY     52  45  77 CALM      30.39R
PORTLAND       SUNNY     50  45  81 CALM      30.38S
SMYRNA         SUNNY     48  44  86 CALM      30.40R
SPARTA         SUNNY     48  45  87 CALM      30.38R
SPRINGFIELD    SUNNY     52  45  76 VRB3      30.37R
WEST NASHVILLE MOSUNNY   46  46 100 CALM      30.38R
$$
TNZ056-058-060-061-075>077-079-093>097-171500
...SOUTHERN MIDDLE TENNESSEE...

CITY           SKY/WX    TMP DP  RH WIND       PRES   REMARKS
COLUMBIA       SUNNY     46  45  93 CALM      30.36R
FAYETTEVILLE   SUNNY     52  45  76 NE5       30.35R
MURFREESBORO   SUNNY     49  43  80 CALM      30.38R
PULASKI        SUNNY     50  46  87 CALM      30.37R
SHELBYVILLE    SUNNY     48  45  87 CALM      30.37R
TULLAHOMA      SUNNY     50  41  71 CALM      30.37R
WINCHESTER     SUNNY     52  45  76 CALM        N/A
$$


...KEY TO REMARKS...
VSB - VISIBILITY IN MILES
WCI - WIND CHILL INDEX
HX  - HEAT INDEX




USA.gov is the U.S. government's official web portal to all federal, state and local government web resources and services.